Wind_Speed
6 5 5 5 5 6 6 6 6 6 7 8 8 9 9 9 9 10 10 10 10 10 10 10 9 9 9 9 9 9 9 9 8 8 8 8 8 8 8 8 8 9 9
7 6 6 6 6 7 7 7 7 7 8 9 9 9 9 9 10 10 10 10 11 11 11 11 10 10 10 9 9 9 9 9 9 9 9 9 9 8 8 8 8 9 10
9 7 7 7 8 7 8 8 8 8 9 9 10 10 10 10 10 11 11 11 11 11 11 11 10 11 11 11 10 10 9 10 10 10 9 9 9 9 9 9 9 9 10
10 9 8 8 8 8 8 9 10 10 9 9 10 10 10 11 11 11 12 11 11 11 11 11 11 11 11 11 11 11 10 10 10 10 10 10 10 10 10 10 10 10 10
11 9 9 9 9 9 10 10 11 11 11 11 10 11 11 11 11 12 12 12 12 12 12 12 12 12 12 12 12 11 11 10 11 11 12 11 11 11 11 11 11 11 11
11 10 10 10 10 10 10 10 11 12 12 12 11 12 11 11 12 12 13 13 13 13 13 13 13 13 13 13 13 12 12 12 12 12 12 12 12 11 12 12 12 12 12
11 11 11 11 11 11 11 12 12 12 12 12 12 12 13 12 12 13 13 13 14 14 14 14 14 14 14 13 13 13 13 12 12 12 13 13 13 12 12 12 12 12 13
12 12 12 12 13 13 13 13 14 13 13 13 13 13 13 13 13 14 14 14 14 15 15 15 15 15 15 14 14 13 13 13 13 13 13 13 13 13 13 13 13 13 13
13 13 13 13 13 14 14 15 14 14 14 14 14 14 14 13 13 14 14 15 15 15 15 15 15 15 15 15 15 14 14 14 14 14 14 14 14 14 14 14 15 15 15
15 15 14 15 15 14 15 15 15 15 15 15 15 15 14 14 14 15 15 16 16 16 16 16 16 15 15 15 16 15 15 14 14 15 15 15 15 15 15 15 15 15 16
17 16 15 16 16 15 15 15 15 15 15 15 15 15 15 15 15 16 16 16 16 17 17 16 16 16 16 16 16 16 16 15 16 16 16 16 16 16 16 16 16 16 16
18 17 16 16 15 16 16 16 16 15 15 15 15 15 15 16 17 17 17 17 17 17 16 16 16 16 16 17 17 17 17 17 17 18 17 17 17 17 17 17 17 17 17
18 17 17 17 17 16 16 16 16 16 16 15 15 16 16 16 17 17 17 18 17 17 16 16 17 17 17 17 18 17 18 18 18 18 18 18 18 18 18 18 18 18 18
19 19 18 17 17 17 16 16 16 16 16 15 15 17 17 17 17 17 18 18 18 18 17 17 18 18 18 18 18 18 18 18 18 18 18 18 19 19 19 20 19 19 18
19 20 19 18 17 16 16 16 16 17 17 17 17 17 18 18 18 19 18 17 18 18 17 17 18 18 18 19 19 19 19 18 18 18 18 19 19 20 20 20 20 21 20
19 19 18 18 17 17 17 16 16 17 17 17 17 18 19 19 19 18 18 17 17 17 17 18 18 18 19 19 20 19 19 19 19 19 19 19 20 21 21 21 22 21 22
18 18 18 18 17 16 15 16 16 17 17 16 17 18 18 18 18 18 18 18 18 18 18 18 18 19 19 19 19 19 18 19 20 20 20 20 20 21 22 23 22 22 22
19 18 18 17 16 15 15 16 16 17 17 17 16 17 17 18 19 18 18 18 19 18 18 18 19 19 19 20 20 19 19 19 19 20 20 20 20 21 22 22 22 22 22
19 18 16 16 16 16 15 15 16 16 16 16 16 17 18 19 19 19 18 18 19 18 19 19 19 19 20 20 20 19 19 19 20 20 21 21 21 21 22 22 22 23 23
18 17 17 16 17 16 16 16 16 15 15 15 16 17 18 19 19 19 18 19 18 18 19 19 19 20 20 20 20 20 20 21 21 21 21 21 22 22 22 23 23 23 23
16 16 17 17 17 16 16 16 16 17 16 15 15 16 18 19 19 20 19 19 18 18 19 20 20 20 20 20 20 20 20 21 21 20 21 22 23 23 23 23 23 24 25
16 15 16 15 15 16 16 15 16 17 17 17 16 17 18 18 18 18 18 19 20 20 20 19 18 18 19 19 19 19 20 20 20 20 20 20 21 22 23 23 24 25 25
15 16 16 16 16 16 17 16 16 17 17 18 18 18 18 18 18 18 19 19 20 20 19 18 17 18 19 19 19 20 20 19 19 20 21 21 21 22 23 24 24 25 26
15 15 16 16 16 17 17 17 17 18 17 17 18 18 18 18 18 18 19 19 18 17 17 18 18 18 19 19 19 19 18 19 20 20 21 22 22 23 23 24 24 24 25
16 16 16 16 17 17 17 17 17 17 17 17 17 17 17 18 18 19 18 17 17 17 17 18 18 18 17 17 17 18 19 20 21 21 21 22 23 23 24 24 25 26 25
14 16 17 16 17 17 17 16 15 15 16 16 16 16 16 16 17 17 16 16 16 17 18 18 17 16 16 17 17 18 19 20 21 22 22 23 24 25 25 25 25 25 26
Wind_Direction
309 310 304 290 280 283 285 284 279 280 281 281 283 288 288 289 288 288 290 292 291 290 292 293 293 292 292 292 291 289 287 284 279 278 277 272 265 261 257 252 246 246 244
301 295 294 292 286 281 279 281 281 280 279 279 282 284 285 285 284 284 288 289 289 289 289 290 290 290 289 288 288 286 285 283 279 277 276 275 269 262 257 253 251 251 248
300 292 291 289 286 279 278 278 279 280 278 279 283 285 284 283 282 282 284 284 285 287 286 286 286 287 287 287 286 284 282 280 277 275 275 274 271 267 262 258 255 251 251
288 282 286 285 282 276 276 276 277 279 279 279 282 284 283 281 278 279 280 280 282 285 287 286 284 287 287 287 286 286 283 280 277 277 276 273 270 269 267 263 258 255 254
278 275 281 280 280 276 276 279 277 276 276 279 280 282 282 283 280 279 280 282 280 281 283 285 284 284 286 286 286 286 286 282 280 279 276 274 271 272 269 264 260 259 256
273 272 276 276 278 276 275 276 275 273 273 274 277 280 280 281 281 280 280 282 281 280 281 283 283 281 282 283 284 285 284 282 280 276 274 274 274 271 266 263 262 260 260
273 272 273 276 276 274 272 270 269 271 272 272 275 279 281 283 283 282 279 282 281 279 282 283 282 280 280 280 280 280 282 282 279 275 273 272 271 269 265 264 265 264 262
276 278 274 275 274 271 269 269 269 269 271 273 277 281 283 283 281 281 281 282 282 278 279 283 283 282 280 278 278 279 280 280 277 271 271 270 270 268 269 268 266 264 261
274 274 274 272 271 269 267 266 266 268 270 272 276 280 281 282 281 282 281 282 282 280 279 282 283 282 283 280 278 278 279 278 275 270 268 268 269 268 269 270 266 263 261
273 273 273 273 269 269 268 266 265 268 271 272 276 279 281 282 283 282 281 282 282 282 282 282 281 281 283 282 279 278 278 275 271 270 269 268 269 267 268 266 265 263 261
272 272 270 272 269 267 267 266 265 267 269 272 276 278 279 279 280 281 281 281 281 283 285 286 285 281 282 283 280 282 281 276 272 272 271 269 269 268 267 266 264 264 262
271 267 266 270 271 268 267 264 262 265 268 271 272 275 277 279 277 278 279 281 282 283 283 284 285 285 284 283 282 282 282 279 277 275 272 270 268 266 266 266 265 264 262
269 268 269 270 271 270 269 263 261 264 267 269 271 273 277 280 278 278 279 280 282 281 280 282 284 284 283 283 282 284 283 280 279 276 271 269 267 265 265 266 266 264 263
271 270 269 269 270 271 267 261 258 261 264 267 272 274 276 277 277 277 279 282 281 279 278 281 283 283 282 283 282 284 284 283 279 277 273 269 268 268 266 264 263 263 262
273 274 268 267 268 267 266 263 261 263 267 267 270 273 273 274 276 278 280 283 284 281 279 280 282 284 285 284 284 284 282 281 279 278 273 268 267 265 263 260 260 260 261
273 270 265 266 266 266 265 262 264 266 267 268 270 271 272 274 277 281 281 282 285 284 281 281 283 284 286 285 285 285 282 280 278 277 275 270 266 264 264 262 261 261 263
271 266 266 268 265 262 258 260 264 265 268 270 271 273 272 274 278 281 281 281 284 284 283 283 284 284 286 286 285 284 283 279 277 275 274 271 267 265 267 266 263 262 261
270 266 261 266 268 269 267 260 263 268 269 271 274 273 274 278 280 282 282 282 282 283 283 285 286 286 286 286 284 282 281 279 277 274 272 270 268 268 269 269 264 262 262
269 268 265 265 269 271 270 267 267 272 271 274 275 272 273 275 277 279 280 280 281 282 282 284 286 287 287 287 285 284 282 279 278 275 273 271 269 268 268 271 267 264 264
270 269 269 268 268 268 270 268 268 270 274 277 276 275 276 276 277 278 279 279 282 284 284 284 285 286 287 287 285 284 283 280 278 276 274 273 271 267 265 268 268 269 267
271 270 271 268 266 266 271 272 269 270 274 279 278 277 279 278 278 278 280 280 284 285 286 286 285 286 286 285 285 284 283 282 280 279 275 272 270 267 265 266 268 270 268
272 269 269 266 265 267 272 274 273 273 275 277 282 282 281 280 282 283 281 283 285 285 286 287 284 285 285 285 286 285 283 280 279 278 276 275 273 269 269 269 268 270 271
273 268 264 264 266 267 269 273 273 274 275 278 281 281 284 284 283 282 283 284 286 287 287 287 286 285 285 285 285 285 282 276 277 277 276 275 273 271 272 274 272 272 271
272 266 263 264 266 267 269 272 276 278 279 284 281 279 282 284 284 283 284 283 284 286 287 288 288 287 287 287 288 287 284 280 276 277 278 277 275 274 275 276 274 275 275
269 265 267 265 266 268 271 273 274 278 282 284 284 282 281 283 283 282 283 284 284 286 287 290 290 289 289 289 288 289 288 285 282 280 279 278 278 278 278 279 277 276 278
267 265 267 267 268 269 268 268 271 277 283 286 286 284 284 285 286 284 282 284 285 287 288 290 291 291 289 289 289 290 289 287 284 283 281 280 281 282 282 281 280 279 278
Height
5898 5897 5898 5898 5898 5898 5898 5898 5898 5898 5898 5897 5897 5896 5896 5895 5895 5894 5894 5893 5893 5892 5892 5891 5890 5889 5888 5888 5887 5887 5886 5885 5884 5883 5883 5883 5882 5882 5882 5882 5882 5881 5881
5897 5897 5897 5897 5897 5897 5897 5897 5897 5897 5896 5896 5896 5895 5895 5894 5894 5893 5892 5892 5891 5891 5890 5889 5888 5887 5887 5886 5886 5885 5884 5884 5883 5882 5881 5881 5881 5881 5881 5881 5880 5880 5880
5896 5896 5896 5896 5896 5896 5896 5896 5896 5895 5895 5895 5894 5894 5893 5893 5892 5892 5891 5890 5890 5889 5888 5887 5886 5886 5885 5884 5884 5883 5883 5882 5881 5881 5880 5880 5880 5879 5879 5879 5879 5878 5878
5894 5894 5894 5894 5894 5894 5894 5894 5894 5894 5894 5893 5893 5892 5892 5891 5891 5890 5890 5889 5888 5887 5886 5885 5885 5884 5883 5882 5882 5881 5881 5880 5879 5879 5878 5878 5878 5877 5877 5877 5877 5876 5876
5892 5892 5892 5892 5892 5892 5893 5893 5892 5892 5892 5892 5891 5891 5890 5889 5889 5888 5888 5887 5886 5885 5884 5884 5883 5882 5881 5880 5880 5879 5878 5878 5877 5877 5876 5876 5875 5875 5875 5875 5875 5875 5875
5890 5890 5890 5890 5890 5890 5890 5891 5890 5890 5890 5889 5889 5889 5888 5887 5887 5886 5886 5885 5884 5883 5882 5881 5880 5880 5879 5878 5877 5877 5876 5875 5875 5874 5874 5873 5873 5872 5872 5872 5872 5872 5872
5888 5887 5887 5887 5888 5888 5888 5888 5888 5888 5887 5887 5887 5886 5886 5885 5885 5884 5883 5883 5882 5881 5880 5879 5878 5877 5877 5876 5875 5874 5874 5873 5872 5872 5871 5871 5870 5870 5870 5870 5870 5870 5870
5885 5885 5885 5885 5885 5885 5885 5885 5885 5885 5885 5885 5884 5884 5883 5883 5882 5881 5881 5880 5879 5878 5878 5877 5876 5875 5874 5873 5872 5871 5871 5871 5870 5869 5869 5868 5868 5868 5867 5867 5867 5867 5867
5882 5882 5882 5882 5882 5882 5882 5882 5882 5882 5882 5882 5882 5881 5880 5880 5879 5878 5878 5877 5876 5875 5875 5874 5873 5872 5871 5870 5869 5868 5868 5867 5867 5866 5866 5866 5865 5865 5865 5865 5864 5864 5864
5879 5879 5879 5879 5879 5879 5879 5879 5879 5879 5879 5879 5878 5878 5877 5877 5876 5876 5875 5874 5873 5872 5871 5870 5870 5869 5868 5867 5866 5865 5865 5864 5863 5863 5863 5862 5862 5862 5861 5861 5861 5861 5861
5875 5876 5875 5875 5875 5875 5876 5875 5875 5875 5875 5875 5875 5875 5874 5874 5873 5872 5871 5871 5870 5869 5868 5867 5866 5865 5864 5863 5862 5862 5861 5861 5860 5859 5859 5858 5858 5858 5858 5858 5858 5858 5858
5871 5871 5871 5872 5872 5872 5872 5872 5872 5872 5872 5872 5872 5871 5871 5870 5869 5869 5868 5867 5866 5865 5864 5863 5862 5861 5861 5860 5859 5858 5857 5857 5856 5855 5855 5854 5854 5854 5854 5854 5854 5854 5854
5867 5867 5867 5868 5868 5868 5868 5868 5868 5868 5868 5868 5868 5867 5867 5866 5866 5865 5864 5863 5862 5861 5860 5859 5859 5858 5857 5856 5855 5854 5853 5852 5851 5851 5850 5850 5850 5849 5849 5849 5849 5849 5849
5863 5863 5862 5863 5863 5863 5863 5864 5864 5864 5864 5864 5864 5864 5863 5863 5862 5860 5860 5859 5858 5857 5856 5855 5855 5853 5852 5851 5850 5849 5848 5847 5847 5846 5845 5845 5845 5845 5844 5844 5845 5845 5845
5859 5858 5857 5858 5858 5858 5859 5859 5860 5860 5859 5859 5860 5860 5859 5858 5857 5856 5855 5855 5854 5853 5852 5851 5850 5849 5848 5847 5845 5844 5844 5842 5842 5841 5840 5840 5840 5840 5839 5839 5840 5840 5840
5855 5853 5853 5853 5854 5854 5855 5855 5855 5855 5854 5854 5855 5854 5854 5854 5853 5852 5852 5851 5850 5849 5848 5847 5846 5844 5844 5842 5841 5839 5839 5837 5837 5836 5835 5834 5834 5834 5834 5834 5834 5835 5835
5850 5849 5849 5849 5849 5849 5849 5850 5850 5851 5850 5850 5849 5849 5849 5849 5849 5848 5847 5847 5846 5845 5844 5843 5841 5840 5839 5838 5836 5834 5833 5832 5831 5831 5830 5829 5829 5829 5829 5829 5829 5829 5829
5845 5844 5845 5845 5845 5845 5845 5845 5846 5846 5846 5846 5845 5845 5844 5844 5844 5843 5843 5842 5841 5840 5839 5838 5837 5835 5834 5832 5831 5829 5828 5827 5826 5825 5825 5824 5824 5823 5823 5823 5824 5824 5824
5841 5839 5839 5840 5841 5841 5841 5841 5842 5842 5842 5841 5841 5841 5840 5840 5839 5838 5838 5837 5836 5835 5834 5833 5831 5830 5828 5827 5826 5824 5823 5821 5820 5820 5819 5818 5818 5818 5818 5817 5818 5818 5818
5836 5836 5836 5836 5836 5837 5837 5837 5837 5838 5838 5837 5836 5836 5835 5835 5834 5833 5833 5832 5831 5830 5828 5827 5825 5824 5823 5821 5820 5819 5817 5816 5815 5814 5813 5812 5812 5812 5812 5812 5811 5811 5811
5832 5832 5832 5831 5832 5833 5833 5833 5833 5833 5833 5833 5832 5831 5830 5830 5829 5828 5827 5826 5825 5824 5823 5821 5820 5818 5817 5815 5814 5813 5811 5810 5809 5808 5807 5806 5806 5806 5806 5805 5805 5804 5804
5828 5828 5828 5828 5828 5829 5829 5829 5829 5828 5828 5828 5827 5826 5826 5825 5824 5823 5822 5821 5820 5819 5817 5815 5814 5813 5811 5810 5808 5807 5806 5805 5803 5802 5801 5800 5800 5800 5799 5799 5798 5797 5797
5824 5824 5824 5825 5825 5825 5825 5825 5824 5824 5824 5824 5823 5822 5821 5820 5819 5818 5817 5816 5815 5813 5812 5811 5809 5808 5806 5805 5803 5802 5800 5799 5798 5797 5795 5795 5794 5793 5793 5792 5791 5790 5789
5820 5820 5820 5820 5820 5821 5821 5821 5820 5820 5820 5819 5818 5817 5816 5815 5814 5813 5812 5811 5810 5808 5807 5805 5804 5803 5801 5799 5797 5796 5795 5793 5792 5791 5790 5788 5788 5787 5786 5785 5783 5782 5781
5815 5816 5816 5816 5816 5816 5816 5816 5816 5816 5815 5814 5813 5812 5811 5810 5809 5808 5807 5806 5804 5803 5802 5800 5799 5797 5795 5793 5792 5791 5789 5787 5786 5785 5784 5782 5781 5780 5779 5777 5776 5774 5773
5811 5811 5811 5811 5812 5812 5811 5812 5811 5811 5810 5809 5808 5807 5806 5805 5804 5802 5802 5801 5799 5798 5797 5795 5794 5792 5790 5789 5787 5785 5784 5782 5780 5778 5777 5776 5774 5773 5771 5770 5768 5766 5765